Scottsdale, AZ

8:56 PM MST on May 28, 2017 (GMT -0700)
Scottsdale

Weather History for KSDL - January, 2014

Change the Weather History Date:

Thursday, January 30, 2014

  Actual Average Record
Temperature  
Mean Temperature 60 °F -  
Max Temperature 73 °F 64 °F 75 °F (1997)
Min Temperature 48 °F 44 °F 37 °F (1999)
Degree Days  
Heating Degree Days 4    
Growing Degree Days 10 (Base 50)    
Moisture  
Dew Point 28 °F    
Average Humidity 31    
Maximum Humidity 50    
Minimum Humidity 14    
Precipitation  
Precipitation 0.00 in - - ()
Sea Level Pressure  
Sea Level Pressure 29.84 in    
Wind  
Wind Speed 1 mph (SE)    
Max Wind Speed 7 mph    
Max Gust Speed -    
Visibility 10 miles    
Events      
Averages and records for this station are not official NWS values.
T = Trace of Precipitation, MM = Missing Value Source: NWS Daily Summary

Daily Weather History Graph

Daily Weather History Graph

Search for Another Location

Airport or City:

Trip Planner

Search our weather history database for the weather conditions in past years. The results will help you decide how hot, cold, wet, or windy it might be!

Date:

Astronomy

Jan. 30, 2014 Rise Set
Actual Time 7:25 AM MST 5:57 PM MST
Civil Twilight 6:59 AM MST 6:23 PM MST
Nautical Twilight 6:29 AM MST 6:53 PM MST
Astronomical Twilight 5:59 AM MST 7:22 PM MST
Moon 6:56 AM MST (1/30) 6:10 PM MST (1/30)
Length of Visible Light 11h 24m
Length of Day
10h 31m
Waning Crescent, 0% of the Moon is Illuminated
Jan 30
Waning Crescent
Jan 30
New
Feb 6
First Quarter
Feb 14
Full
Feb 22
Last Quarter

Hourly Weather History & Observations

Time (MST) Temp. Dew Point Humidity Pressure Visibility Wind Dir Wind Speed Gust Speed Precip Events Conditions
12:53 AM 53.1 °F 30.0 °F 41% 29.91 in 10.0 mi Calm Calm - N/A   Clear
1:53 AM 53.1 °F 27.0 °F 37% 29.90 in 10.0 mi NE 4.6 mph - N/A   Clear
2:53 AM 51.1 °F 30.0 °F 44% 29.90 in 10.0 mi Calm Calm - N/A   Clear
3:53 AM 51.1 °F 28.9 °F 43% 29.88 in 10.0 mi Calm Calm - N/A   Clear
4:53 AM 48.9 °F 28.9 °F 46% 29.88 in 10.0 mi Calm Calm - N/A   Clear
5:53 AM 48.9 °F 28.0 °F 44% 29.89 in 10.0 mi Calm Calm - N/A   Clear
6:53 AM 48.9 °F 30.0 °F 48% 29.88 in 10.0 mi Calm Calm - N/A   Clear
7:53 AM 48.9 °F 30.9 °F 50% 29.90 in 6.0 mi Calm Calm - N/A   Haze
8:35 AM 53.6 °F 30.2 °F 41% 29.93 in 10.0 mi Calm Calm - N/A   Clear
8:46 AM 53.6 °F 30.2 °F 41% 29.93 in 2.5 mi Calm Calm - N/A   Haze
8:53 AM 53.1 °F 30.9 °F 43% 29.90 in 10.0 mi Calm Calm - N/A   Clear
9:53 AM 57.9 °F 27.0 °F 31% 29.91 in 10.0 mi Calm Calm - N/A   Clear
10:53 AM 64.0 °F 28.9 °F 27% 29.91 in 10.0 mi SSE 4.6 mph - N/A   Clear
11:53 AM 70.0 °F 24.1 °F 18% 29.88 in - SE 6.9 mph - N/A   Clear
12:53 PM 70.0 °F 23.0 °F 17% 29.84 in 10.0 mi SSE 6.9 mph - N/A   Clear
1:53 PM 73.0 °F 24.1 °F 16% 29.81 in 10.0 mi Variable 6.9 mph - N/A   Clear
2:53 PM 73.0 °F 21.0 °F 14% 29.79 in 10.0 mi South 4.6 mph - N/A   Clear
3:53 PM 73.0 °F 21.9 °F 15% 29.78 in 10.0 mi SW 3.5 mph - N/A   Clear
4:53 PM 73.0 °F 24.1 °F 16% 29.77 in 10.0 mi Calm Calm - N/A   Clear
5:53 PM 70.0 °F 26.1 °F 19% 29.75 in 10.0 mi Calm Calm - N/A   Clear
6:53 PM 68.0 °F 26.1 °F 21% 29.74 in 10.0 mi Calm Calm - N/A   Clear
7:53 PM 66.9 °F 28.9 °F 24% 29.76 in 10.0 mi NNW 4.6 mph - N/A   Clear
8:53 PM 64.0 °F 30.0 °F 28% 29.75 in 10.0 mi Calm Calm - N/A   Partly Cloudy
9:53 PM 63.0 °F 30.9 °F 30% 29.75 in 10.0 mi Calm Calm - N/A   Partly Cloudy
10:53 PM 62.1 °F 30.9 °F 31% 29.75 in 10.0 mi Calm Calm - N/A   Clear
11:53 PM 62.1 °F 32.0 °F 32% 29.74 in 10.0 mi NE 4.6 mph - N/A   Mostly Cloudy